Hourly Weather Kiszkowo

Today, 27 July, Tuesday

Time Temperature Precipitation Wind Pressure Humidity
00:00 +21°C° 0 mm 2 mps 756 mmHg 80%
01:00 +20°C° 0 mm 3 mps 757 mmHg 81%
02:00 +20°C° 0 mm 3 mps 757 mmHg 82%
03:00 +20°C° 0 mm 3 mps 757 mmHg 84%
04:00 +20°C° 0 mm 3 mps 757 mmHg 86%
05:00 +21°C° 0 mm 3 mps 757 mmHg 81%
06:00 +22°C° 0 mm 3 mps 757 mmHg 77%
07:00 +24°C° 0 mm 3 mps 757 mmHg 73%
08:00 +25°C° 0 mm 4 mps 757 mmHg 67%
09:00 +26°C° 0 mm 4 mps 757 mmHg 61%
10:00 +28°C° 0 mm 5 mps 757 mmHg 55%
11:00 +28°C° 0 mm 5 mps 757 mmHg 53%
12:00 +29°C° 0 mm 5 mps 757 mmHg 51%
13:00 +29°C° 0 mm 5 mps 757 mmHg 49%
14:00 +28°C° 0 mm 4 mps 757 mmHg 52%
15:00 +27°C° 0 mm 3 mps 757 mmHg 55%
16:00 +26°C° 0 mm 2 mps 757 mmHg 58%
17:00 +26°C° 0 mm 2 mps 757 mmHg 61%
18:00 +25°C° 0 mm 1 mps 757 mmHg 64%
19:00 +24°C° 0 mm 1 mps 757 mmHg 66%
20:00 +23°C° 0 mm 1 mps 758 mmHg 71%
21:00 +21°C° 0 mm 2 mps 758 mmHg 75%
22:00 +20°C° 0 mm 2 mps 758 mmHg 79%
23:00 +20°C° 0 mm 2 mps 758 mmHg 82%

Tomorrow, 28 July, Wednesday

Time Temperature Precipitation Wind Pressure Humidity
00:00 +19°C° 0 mm 2 mps 758 mmHg 85%
01:00 +18°C° 0 mm 2 mps 758 mmHg 88%
02:00 +18°C° 0 mm 2 mps 758 mmHg 88%
03:00 +18°C° 0 mm 3 mps 758 mmHg 89%
04:00 +17°C° 0 mm 3 mps 758 mmHg 90%
05:00 +19°C° 0 mm 4 mps 758 mmHg 82%
06:00 +21°C° 0 mm 4 mps 758 mmHg 75%
07:00 +22°C° 0 mm 4 mps 758 mmHg 67%
08:00 +23°C° 0 mm 4 mps 758 mmHg 63%
09:00 +25°C° 0 mm 4 mps 757 mmHg 58%
10:00 +26°C° 0 mm 4 mps 757 mmHg 53%
11:00 +25°C° 0.2 mm 4 mps 758 mmHg 62%
12:00 +22°C° 0.2 mm 4 mps 758 mmHg 71%
13:00 +21°C° 0.2 mm 4 mps 758 mmHg 80%
14:00 +21°C° 0.3 mm 4 mps 758 mmHg 78%
15:00 +22°C° 0.3 mm 4 mps 758 mmHg 75%
16:00 +23°C° 0.3 mm 4 mps 757 mmHg 73%
17:00 +22°C° 0.1 mm 3 mps 757 mmHg 74%
18:00 +21°C° 0.1 mm 2 mps 757 mmHg 76%
19:00 +22°C° 0.1 mm 1 mps 757 mmHg 77%
20:00 +20°C° 0 mm 2 mps 757 mmHg 79%
21:00 +19°C° 0 mm 3 mps 757 mmHg 81%
22:00 +18°C° 0 mm 4 mps 757 mmHg 84%
23:00 +18°C° 0.1 mm 4 mps 757 mmHg 87%

Day after tomorrow, 29 July, Thursday

Time Temperature Precipitation Wind Pressure Humidity
00:00 +17°C° 0.1 mm 4 mps 757 mmHg 90%
01:00 +16°C° 0.1 mm 5 mps 757 mmHg 93%
02:00 +15°C° 0 mm 5 mps 757 mmHg 94%
03:00 +15°C° 0 mm 5 mps 756 mmHg 95%
04:00 +15°C° 0 mm 5 mps 756 mmHg 95%
05:00 +16°C° 0 mm 5 mps 756 mmHg 89%
06:00 +17°C° 0 mm 6 mps 756 mmHg 82%
07:00 +19°C° 0 mm 6 mps 756 mmHg 76%
08:00 +21°C° 0.1 mm 6 mps 756 mmHg 68%
09:00 +23°C° 0.1 mm 7 mps 756 mmHg 60%
10:00 +24°C° 0.1 mm 7 mps 755 mmHg 51%
11:00 +24°C° 0.1 mm 8 mps 755 mmHg 52%
12:00 +24°C° 0.1 mm 8 mps 755 mmHg 52%
13:00 +23°C° 0.1 mm 8 mps 755 mmHg 52%
14:00 +24°C° 0 mm 8 mps 755 mmHg 48%
15:00 +24°C° 0 mm 8 mps 755 mmHg 43%
16:00 +26°C° 0 mm 8 mps 755 mmHg 39%
17:00 +24°C° 0 mm 8 mps 755 mmHg 40%
18:00 +23°C° 0 mm 7 mps 755 mmHg 41%
19:00 +22°C° 0 mm 7 mps 755 mmHg 43%
20:00 +20°C° 0 mm 7 mps 755 mmHg 49%
21:00 +19°C° 0 mm 6 mps 755 mmHg 56%
22:00 +16°C° 0 mm 6 mps 755 mmHg 63%
23:00 +15°C° 0 mm 6 mps 755 mmHg 66%

30 July, Friday

Time Temperature Precipitation Wind Pressure Humidity
00:00 +15°C° 0 mm 6 mps 755 mmHg 70%
01:00 +14°C° 0 mm 7 mps 755 mmHg 73%
02:00 +13°C° 0 mm 6 mps 755 mmHg 76%
03:00 +13°C° 0 mm 6 mps 755 mmHg 79%
04:00 +11°C° 0 mm 6 mps 755 mmHg 81%
05:00 +14°C° 0 mm 7 mps 755 mmHg 74%
06:00 +16°C° 0 mm 7 mps 755 mmHg 66%
07:00 +17°C° 0 mm 8 mps 755 mmHg 59%
08:00 +20°C° 0 mm 8 mps 755 mmHg 53%
09:00 +21°C° 0 mm 9 mps 755 mmHg 48%
10:00 +23°C° 0 mm 9 mps 755 mmHg 43%
11:00 +23°C° 0 mm 9 mps 754 mmHg 41%
12:00 +24°C° 0 mm 8 mps 754 mmHg 39%
13:00 +24°C° 0 mm 8 mps 754 mmHg 37%
14:00 +24°C° 0 mm 7 mps 754 mmHg 38%
15:00 +24°C° 0 mm 7 mps 754 mmHg 38%
16:00 +26°C° 0 mm 6 mps 754 mmHg 39%
17:00 +23°C° 0 mm 5 mps 754 mmHg 46%
18:00 +22°C° 0 mm 4 mps 754 mmHg 52%
19:00 +21°C° 0 mm 4 mps 754 mmHg 59%
20:00 +20°C° 0 mm 3 mps 754 mmHg 65%
21:00 +18°C° 0 mm 2 mps 754 mmHg 71%
22:00 +17°C° 0 mm 2 mps 754 mmHg 77%
23:00 +16°C° 0 mm 2 mps 754 mmHg 78%

31 July, Saturday

Time Temperature Precipitation Wind Pressure Humidity
00:00 +16°C° 0 mm 3 mps 754 mmHg 78%
01:00 +16°C° 0 mm 3 mps 754 mmHg 78%
02:00 +16°C° 0 mm 3 mps 753 mmHg 77%
03:00 +15°C° 0 mm 4 mps 753 mmHg 76%
04:00 +15°C° 0 mm 4 mps 753 mmHg 76%
05:00 +17°C° 0.2 mm 4 mps 752 mmHg 77%
06:00 +16°C° 0.2 mm 5 mps 752 mmHg 78%
07:00 +17°C° 0.2 mm 6 mps 752 mmHg 79%
08:00 +18°C° 0.1 mm 7 mps 752 mmHg 73%
09:00 +21°C° 0.1 mm 8 mps 752 mmHg 67%
10:00 +22°C° 0.1 mm 9 mps 752 mmHg 62%
11:00 +22°C° 0.1 mm 9 mps 752 mmHg 59%
12:00 +21°C° 0.1 mm 9 mps 752 mmHg 57%
13:00 +21°C° 0.1 mm 9 mps 753 mmHg 54%
14:00 +21°C° 0.1 mm 9 mps 753 mmHg 56%
15:00 +21°C° 0.1 mm 9 mps 753 mmHg 59%
16:00 +21°C° 0.1 mm 10 mps 753 mmHg 61%
17:00 +19°C° 0.3 mm 9 mps 753 mmHg 67%
18:00 +18°C° 0.3 mm 8 mps 753 mmHg 73%
19:00 +17°C° 0.3 mm 8 mps 753 mmHg 80%
20:00 +17°C° 0.3 mm 8 mps 753 mmHg 81%
21:00 +16°C° 0.3 mm 8 mps 753 mmHg 83%
22:00 +16°C° 0.3 mm 8 mps 753 mmHg 85%
23:00 +15°C° 0 mm 8 mps 753 mmHg 87%

1 August, Sunday

Time Temperature Precipitation Wind Pressure Humidity
00:00 +13°C° 0 mm 8 mps 753 mmHg 88%
01:00 +14°C° 0 mm 7 mps 754 mmHg 89%
02:00 +12°C° 0 mm 7 mps 754 mmHg 90%
03:00 +12°C° 0 mm 7 mps 754 mmHg 91%
04:00 +11°C° 0 mm 7 mps 754 mmHg 92%
05:00 +12°C° 0 mm 8 mps 754 mmHg 88%
06:00 +13°C° 0 mm 8 mps 754 mmHg 84%
07:00 +15°C° 0 mm 8 mps 754 mmHg 80%
08:00 +17°C° 0 mm 8 mps 754 mmHg 70%
09:00 +18°C° 0 mm 9 mps 754 mmHg 61%
10:00 +21°C° 0 mm 9 mps 754 mmHg 51%
11:00 +22°C° 0 mm 9 mps 754 mmHg 49%
12:00 +22°C° 0 mm 9 mps 754 mmHg 46%
13:00 +23°C° 0 mm 9 mps 753 mmHg 44%
14:00 +22°C° 0 mm 8 mps 753 mmHg 49%
15:00 +21°C° 0 mm 8 mps 753 mmHg 54%
16:00 +21°C° 0 mm 8 mps 753 mmHg 59%
17:00 +20°C° 0.4 mm 7 mps 754 mmHg 67%
18:00 +18°C° 0.4 mm 7 mps 754 mmHg 75%
19:00 +17°C° 0.4 mm 7 mps 754 mmHg 83%
20:00 +16°C° 0 mm 6 mps 754 mmHg 84%
21:00 +15°C° 0 mm 6 mps 754 mmHg 85%
22:00 +14°C° 0 mm 6 mps 754 mmHg 87%
23:00 +14°C° 0.1 mm 6 mps 754 mmHg 87%
Show more